Niamtougou International Airport

Jump to: basic info | weather | frequencies | runways | comments

Related pages: nearby airports | nearby navaids | notams | map

Basic information (top)

Codes: LRL DXNG
Location: lon 9.767330, lat 1.091250, elev 1,515 ft / 462 m msl
Status: medium_airport
Scheduled airline service: no
Links: Wikipedia Mobile

Weather (top)

Current conditions (rec'd 2014/09/19 21:00Z):

DXNG 192100Z 00000KT 9999 FEW006 24/24 Q1016

Airport forecast (rec'd 2014/09/19 18:24Z):

TAF TAF DXNG 191703Z 1918/2018 VRB03KT 9999 SCT010 
      TEMPO 2005/2009 20010KT 4500 TSRA BKN006 FEW016CB 
      TEMPO 2016/2018 4000 TSRA BKN006 FEW016CB

Frequencies (top)

Verify before use: may be inaccurate or out of date.

A/G: 122.6 MHz (A/G VOICE RDO)
AFIS: 658.6 MHz (AFIS)
TWR: 118.3 MHz (TWR)

Runways (top)

03/21: 8,202 x 148 ft (2,500 x 45 m) — paved — lighted

Latest comments (top)

No comments yet for Niamtougou International Airport

More... (top)

See also NOTAMs and nearby airports and navaids, or visit the Niamtougou International Airport page at the main OurAirports website..